[[{"header":{"parameterUnit":"m.s-1","parameterCategory":1,"la1":30.2992,"la2":30.254,"lo1":-89.0895,"lo2":-89.0443,"dy":0.0025,"dx":0.0025,"nx":19,"ny":19,"refTime":"2026-03-10T09:00:00:Z","depth":0,"parameterNumber":2,"parameterNumberName":"U-component_of_WINDS"},"data":[0,0,0,-0.8817,-0.8817,-0.8776,-0.8776,-0.8731,-0.8731,0,0,0,0,0,0,0,0,0,0,0,-0.8835,-0.8835,-0.8817,-0.8817,-0.8776,-0.8776,-0.8732,-0.8731,0,0,0,0,0,0,0,0,0,0,0,-0.8835,-0.8835,-0.8835,-0.8816,-0.8776,-0.8776,-0.8732,-0.8759,0,0,0,0,0,0,0,0,0,0,-0.8797,-0.882,-0.8835,-0.8835,-0.8816,-0.8776,-0.8776,-0.876,-0.8757,-0.8754,0,-0.8753,0,-0.8741,-0.8729,-0.8729,0,0,0,-0.8812,-0.8822,-0.8806,-0.8835,-0.8816,-0.8776,-0.8793,-0.8759,-0.8755,-0.875,-0.8752,-0.875,-0.8741,-0.8729,-0.8728,-0.8724,-0.8724,0,0,-0.8814,-0.8831,-0.8809,-0.8804,-0.8813,-0.8794,-0.8792,-0.8757,-0.876,-0.8752,-0.8749,-0.874,-0.8728,-0.8728,-0.8724,-0.8724,0,0,0,-0.8824,-0.8833,-0.8817,-0.8806,-0.8799,-0.8793,-0.879,-0.8761,-0.8755,-0.8748,-0.8739,-0.8728,-0.8728,-0.8724,-0.8724,-0.875,0,0,0,-0.8825,-0.8838,-0.8818,-0.8828,-0.88,-0.878,-0.8796,-0.8757,-0.8753,-0.874,-0.8728,-0.8727,-0.8724,-0.8724,-0.8749,-0.876,0,0,0,-0.8836,-0.8839,-0.8836,-0.8829,-0.8813,-0.878,-0.8771,-0.8756,-0.8748,-0.8729,-0.8727,-0.8723,-0.8724,-0.8748,-0.8758,-0.8763,0,0,0,-0.8852,-0.886,-0.8836,-0.8841,-0.8813,-0.8797,-0.8771,-0.8758,-0.8746,-0.8728,-0.8724,-0.8724,-0.8748,-0.8757,-0.8762,-0.877,-0.8775,0,0,-0.8871,-0.8862,-0.8864,-0.8842,-0.8835,-0.8802,-0.8798,-0.877,-0.8752,-0.8734,-0.8734,-0.875,-0.8758,-0.8763,-0.88,-0.8804,0,0,0,-0.8875,-0.8876,-0.8871,-0.886,-0.8839,-0.8822,-0.8792,-0.8782,-0.8766,-0.8747,-0.8753,-0.8757,-0.8759,-0.8762,-0.8766,-0.8766,-0.8726,-0.8726,-0.8726,-0.8925,-0.8903,-0.8903,-0.8876,-0.8866,-0.8836,-0.8824,-0.8805,-0.8785,-0.8787,-0.8781,-0.8806,-0.881,-0.8813,-0.8814,-0.8784,-0.8784,-0.8784,-0.8784,-0.8949,-0.8947,-0.8921,-0.8912,-0.8888,-0.888,-0.8851,-0.8837,-0.8825,-0.8809,-0.881,-0.8793,-0.8818,-0.8818,-0.8786,-0.8786,-0.8786,-0.8785,-0.8785,-0.8979,-0.8974,-0.8961,-0.8943,-0.8931,-0.8903,-0.8893,-0.8871,-0.8851,-0.8852,-0.8842,-0.8842,-0.8838,-0.8849,-0.8849,-0.8849,-0.8849,-0.8849,-0.8849,-0.9014,-0.8999,-0.8994,-0.8972,-0.8962,-0.8946,-0.8916,-0.8905,-0.8887,-0.8872,-0.8871,-0.8851,-0.8826,-0.8819,-0.8851,-0.885,-0.885,-0.885,-0.885,-0.9045,-0.9035,-0.9026,-0.9016,-0.8989,-0.8978,-0.8951,-0.893,-0.8918,-0.8914,-0.8893,-0.8878,-0.8868,-0.8865,-0.8859,-0.8899,-0.8899,-0.8899,-0.8899,-0.9069,-0.9062,-0.9049,-0.9034,-0.9017,-0.8991,-0.8981,-0.8958,-0.8931,-0.8922,-0.8913,-0.8905,-0.8903,-0.8893,-0.8889,-0.8884,-0.8929,-0.8929,-0.8929,-0.9087,-0.9077,-0.9073,-0.9049,-0.9026,-0.9006,-0.8996,-0.8978,-0.8946,-0.8929,-0.8914,-0.8913,-0.8898,-0.8895,-0.8877,-0.8872,-0.8861,0,0]},{"header":{"parameterUnit":"m.s-1","parameterCategory":1,"la1":30.2992,"la2":30.254,"lo1":-89.0895,"lo2":-89.0443,"dy":0.0025,"dx":0.0025,"nx":19,"ny":19,"refTime":"2026-03-10T09:00:00:Z","depth":0,"parameterNumber":3,"parameterNumberName":"V-component_of_WINDS"},"data":[0,0,0,2.5342,2.5343,2.5429,2.543,2.5534,2.5534,0,0,0,0,0,0,0,0,0,0,0,2.5313,2.5314,2.5342,2.5344,2.5429,2.543,2.5533,2.5534,0,0,0,0,0,0,0,0,0,0,0,2.5313,2.5314,2.5314,2.5344,2.5429,2.543,2.5533,2.547,0,0,0,0,0,0,0,0,0,0,2.5388,2.5359,2.5313,2.5314,2.5344,2.5429,2.543,2.5468,2.5474,2.5492,0,2.5508,0,2.5523,2.5541,2.5541,0,0,0,2.5346,2.5353,2.5379,2.5314,2.5345,2.5429,2.5391,2.5471,2.5479,2.5502,2.5509,2.5513,2.5525,2.5542,2.5542,2.5641,2.5641,0,0,2.5341,2.5327,2.5374,2.5384,2.5371,2.5388,2.5394,2.5476,2.5484,2.551,2.5516,2.5526,2.5542,2.5543,2.564,2.5641,0,0,0,2.5326,2.5323,2.5348,2.538,2.5395,2.5391,2.5397,2.548,2.5489,2.5517,2.5528,2.5543,2.5544,2.564,2.5641,2.5646,0,0,0,2.5323,2.5315,2.5345,2.5337,2.5394,2.5439,2.5399,2.5484,2.5493,2.5527,2.5543,2.5545,2.564,2.564,2.5645,2.5651,0,0,0,2.5309,2.5313,2.5324,2.5336,2.5373,2.5438,2.5452,2.5486,2.55,2.5542,2.5545,2.5639,2.564,2.5644,2.5649,2.5674,0,0,0,2.5289,2.5326,2.5324,2.537,2.5372,2.544,2.5451,2.5503,2.5539,2.5544,2.564,2.5641,2.5644,2.5648,2.5673,2.5693,2.5699,0,0,2.5328,2.533,2.5359,2.5359,2.5424,2.5428,2.5494,2.554,2.5557,2.5612,2.5614,2.5645,2.5649,2.5673,2.5739,2.5744,0,0,0,2.5366,2.5387,2.5407,2.5442,2.5479,2.5511,2.5549,2.5567,2.5614,2.5582,2.566,2.5663,2.5678,2.5688,2.5693,2.5707,2.5644,2.5644,2.5644,2.5402,2.5422,2.5471,2.5501,2.5535,2.5574,2.5603,2.5633,2.5643,2.5661,2.5678,2.5715,2.5727,2.573,2.5745,2.5689,2.5689,2.5689,2.5689,2.5463,2.5495,2.5508,2.556,2.5581,2.5625,2.5664,2.567,2.5714,2.5704,2.5718,2.5706,2.5735,2.5749,2.5689,2.5689,2.5689,2.5689,2.5689,2.5489,2.5509,2.553,2.5583,2.5621,2.5651,2.5693,2.571,2.5726,2.574,2.576,2.576,2.5764,2.5748,2.5748,2.5748,2.5748,2.5749,2.5749,2.5509,2.5533,2.5567,2.561,2.5635,2.567,2.5711,2.5736,2.5768,2.5777,2.5778,2.5786,2.5734,2.5721,2.5751,2.575,2.575,2.575,2.575,2.5566,2.5556,2.5608,2.5634,2.5687,2.5724,2.5745,2.5796,2.5819,2.5839,2.5845,2.5803,2.5806,2.5803,2.5793,2.5839,2.5839,2.5839,2.5839,2.559,2.5593,2.5651,2.5691,2.5732,2.5756,2.5815,2.5847,2.5878,2.5894,2.589,2.5877,2.5873,2.5879,2.5874,2.5865,2.5929,2.5929,2.5929,2.5627,2.5635,2.5682,2.5713,2.5756,2.5792,2.5849,2.5894,2.5927,2.5933,2.5907,2.5904,2.5883,2.5875,2.5882,2.5874,2.5857,0,0]}]]